Hourly Data Report for October 27, 2016

All times are specified in Local Standard Time (LST). Add 1 hour to adjust for Daylight Saving Time where and when it is observed.

GJOA HAVEN A
NUNAVUT

68°38'08.000" N
95°51'01.000" W
46.90 m
2302337
71597
YHK

Download Data

Hourly Data (October 2016)
Hourly Data Report for October 27, 2016
Temp Definition
°C
Dew Point Temp Definition
°C
Rel Hum Definition
%
Wind Dir Definition
10's deg

Wind Spd Definition
km/h
Visibility Definition
km
Stn Press Definition
kPa
Hmdx Definition


Wind Chill Definition


Weather Definition


TIME
00:00 Legend Double Dagger -19.3 -21.1 86 34 24 16.1 101.29   -31 LegendNANA
01:00 Legend Double Dagger -17.3 -18.7 89 34 22 12.9 101.32   -28 LegendNANA
02:00 Legend Double Dagger -18.4 -20.2 86 33 28 16.1 101.31   -30 LegendNANA
03:00 Legend Double Dagger -19.9 -21.8 85 33 26 16.1 101.33   -32 LegendNANA
04:00 Legend Double Dagger -20.0 -21.9 85 34 21 16.1 101.34   -31 LegendNANA
05:00 Legend Double Dagger -20.4 -22.3 85 34 24 16.1 101.34   -32 LegendNANA
06:00 Legend Double Dagger -20.4 -22.4 84 34 24 16.1 101.34   -32 LegendNANA
07:00 Legend Double Dagger -20.5 -22.4 85 34 24 2.4 101.37   -32 Snow
08:00 Legend Double Dagger -20.0 -21.9 85 33 26 4.8 101.35   -32 Fog
09:00 Legend Double Dagger -20.4 -22.3 85 34 24 12.9 101.33   -32 LegendNANA
10:00 Legend Double Dagger -19.9 -21.8 85 33 18 4.8 101.35   -30 Snow
11:00 Legend Double Dagger -18.3 -20.0 87 34 21 12.9 101.36   -29 LegendNANA
12:00 Legend Double Dagger -16.9 -18.4 88 33 17 16.1 101.37   -26 LegendNANA
13:00 Legend Double Dagger -16.2 -17.6 89 34 15 16.1 101.39   -24 LegendNANA
14:00 Legend Double Dagger -16.2 -17.6 89 36 22 16.1 101.40   -26 LegendNANA
15:00 Legend Double Dagger -16.1 -17.5 89 34 24 16.1 101.40   -26 LegendNANA
16:00 Legend Double Dagger -16.0 -17.4 89 34 24 16.1 101.44   -26 LegendNANA
17:00 Legend Double Dagger -16.0 -17.4 89 34 21 16.1 101.42   -26 LegendNANA
18:00 Legend Double Dagger -16.1 -17.5 89 33 21 16.1 101.41   -26 LegendNANA
19:00 Legend Double Dagger -16.1 -17.5 89 33 21 6.4 101.44   -26 Snow
20:00 Legend Double Dagger -16.4 -17.8 89 33 21 4.8 101.41   -26 Snow
21:00 Legend Double Dagger -16.2 -17.6 89 33 18 11.3 101.41   -25 Snow
22:00 Legend Double Dagger -16.0 -17.4 89 34 21 8.1 101.39   -26 Snow
23:00 Legend Double Dagger -16.1 -17.5 89 35 15 14.5 101.41   -24 LegendNANA

Notes on Data Quality.

Legend

  • E = Estimated
  • M = Missing
  • NA = Not Available
  • ‡ = Partner data that is not subject to review by the National Climate Archives
Date modified: